Location: Unspecified
(43.4680°N, 87.1740°E)
Time: 13:18:17
(UTC+00:00)

CZ-2D R/B - Pass Details

Date: 26 July 2021
Orbit: 553 x 637 km, 97.9° (Epoch: 17 September)

Event Time Altitude Azimuth Distance (km) Brightness Sun altitude
Rises 20:39:16 0° 31° (NNE) 2,755 8.5 -19.4°
Reaches altitude 10° 20:42:04 10° 52° (NE) 1,864 7.1 -19.1°
Maximum altitude 20:44:40 17° 93° (E) 1,492 5.9 -18.8°
Drops below altitude 10° 20:47:18 10° 133° (SE) 1,879 6.0 -18.5°
Enters shadow 20:48:41 - 146° (SE) 2,292 6.3 -18.4°
